Hourly Weather Granadilla de Abona

Today, 8 July, Wednesday

Time Temperature Precipitation Wind Pressure Humidity
00:00 +29°C° 0 mm 5 mps 705 mmHg 35%
01:00 +28°C° 0 mm 5 mps 705 mmHg 33%
02:00 +28°C° 0 mm 5 mps 704 mmHg 32%
03:00 +28°C° 0 mm 5 mps 705 mmHg 32%
04:00 +28°C° 0 mm 4 mps 705 mmHg 31%
05:00 +28°C° 0 mm 4 mps 705 mmHg 31%
06:00 +30°C° 0 mm 5 mps 705 mmHg 28%
07:00 +32°C° 0 mm 6 mps 706 mmHg 26%
08:00 +34°C° 0 mm 7 mps 706 mmHg 24%
09:00 +34°C° 0 mm 7 mps 706 mmHg 25%
10:00 +35°C° 0 mm 6 mps 707 mmHg 26%
11:00 +35°C° 0 mm 6 mps 707 mmHg 28%
12:00 +35°C° 0 mm 6 mps 707 mmHg 28%
13:00 +35°C° 0 mm 6 mps 707 mmHg 29%
14:00 +35°C° 0 mm 7 mps 706 mmHg 30%
15:00 +34°C° 0 mm 7 mps 706 mmHg 30%
16:00 +34°C° 0 mm 7 mps 706 mmHg 29%
17:00 +34°C° 0 mm 7 mps 706 mmHg 29%
18:00 +32°C° 0 mm 7 mps 706 mmHg 30%
19:00 +30°C° 0 mm 7 mps 706 mmHg 30%
20:00 +29°C° 0 mm 7 mps 706 mmHg 31%
21:00 +29°C° 0 mm 7 mps 706 mmHg 30%
22:00 +29°C° 0 mm 7 mps 707 mmHg 28%
23:00 +29°C° 0 mm 7 mps 707 mmHg 27%

Tomorrow, 9 July, Thursday

Time Temperature Precipitation Wind Pressure Humidity
00:00 +28°C° 0 mm 7 mps 706 mmHg 27%
01:00 +28°C° 0 mm 7 mps 706 mmHg 27%
02:00 +28°C° 0 mm 8 mps 705 mmHg 27%
03:00 +28°C° 0 mm 7 mps 705 mmHg 27%
04:00 +28°C° 0 mm 7 mps 706 mmHg 27%
05:00 +28°C° 0 mm 7 mps 706 mmHg 28%
06:00 +29°C° 0 mm 7 mps 706 mmHg 27%
07:00 +31°C° 0 mm 8 mps 706 mmHg 26%
08:00 +32°C° 0 mm 8 mps 707 mmHg 25%
09:00 +32°C° 0 mm 8 mps 707 mmHg 26%
10:00 +33°C° 0 mm 8 mps 707 mmHg 27%
11:00 +33°C° 0 mm 8 mps 707 mmHg 28%
12:00 +32°C° 0 mm 8 mps 707 mmHg 30%
13:00 +32°C° 0 mm 7 mps 707 mmHg 32%
14:00 +32°C° 0 mm 7 mps 707 mmHg 33%
15:00 +30°C° 0 mm 7 mps 706 mmHg 34%
16:00 +29°C° 0 mm 7 mps 706 mmHg 35%
17:00 +29°C° 0 mm 6 mps 706 mmHg 36%
18:00 +27°C° 0 mm 7 mps 706 mmHg 38%
19:00 +26°C° 0 mm 7 mps 706 mmHg 41%
20:00 +24°C° 0 mm 8 mps 706 mmHg 43%
21:00 +24°C° 0 mm 7 mps 706 mmHg 42%
22:00 +24°C° 0 mm 7 mps 706 mmHg 41%
23:00 +24°C° 0 mm 7 mps 706 mmHg 41%

Day after tomorrow, 10 July, Friday

Time Temperature Precipitation Wind Pressure Humidity
00:00 +23°C° 0 mm 7 mps 705 mmHg 42%
01:00 +23°C° 0 mm 7 mps 705 mmHg 44%
02:00 +22°C° 0 mm 7 mps 704 mmHg 46%
03:00 +22°C° 0 mm 7 mps 704 mmHg 46%
04:00 +22°C° 0 mm 7 mps 704 mmHg 46%
05:00 +22°C° 0 mm 7 mps 704 mmHg 45%
06:00 +23°C° 0 mm 7 mps 704 mmHg 44%
07:00 +24°C° 0 mm 7 mps 704 mmHg 42%
08:00 +27°C° 0 mm 7 mps 705 mmHg 41%
09:00 +27°C° 0 mm 7 mps 705 mmHg 40%
10:00 +28°C° 0 mm 7 mps 705 mmHg 40%
11:00 +28°C° 0 mm 8 mps 705 mmHg 39%
12:00 +28°C° 0 mm 7 mps 705 mmHg 40%
13:00 +28°C° 0 mm 7 mps 705 mmHg 41%
14:00 +28°C° 0 mm 6 mps 704 mmHg 42%
15:00 +28°C° 0 mm 6 mps 704 mmHg 44%
16:00 +27°C° 0 mm 6 mps 704 mmHg 46%
17:00 +26°C° 0 mm 5 mps 703 mmHg 48%
18:00 +24°C° 0 mm 6 mps 703 mmHg 49%
19:00 +23°C° 0 mm 6 mps 703 mmHg 51%
20:00 +22°C° 0 mm 6 mps 703 mmHg 53%
21:00 +22°C° 0 mm 6 mps 704 mmHg 52%
22:00 +22°C° 0 mm 6 mps 704 mmHg 51%
23:00 +21°C° 0 mm 6 mps 704 mmHg 50%

11 July, Saturday

Time Temperature Precipitation Wind Pressure Humidity
00:00 +21°C° 0 mm 6 mps 703 mmHg 50%
01:00 +21°C° 0 mm 6 mps 703 mmHg 49%
02:00 +21°C° 0 mm 6 mps 703 mmHg 48%
03:00 +21°C° 0 mm 6 mps 703 mmHg 50%
04:00 +20°C° 0 mm 6 mps 702 mmHg 51%
05:00 +20°C° 0 mm 6 mps 702 mmHg 52%
06:00 +22°C° 0 mm 6 mps 703 mmHg 50%
07:00 +23°C° 0 mm 5 mps 703 mmHg 47%
08:00 +26°C° 0 mm 5 mps 704 mmHg 45%
09:00 +26°C° 0 mm 5 mps 704 mmHg 44%
10:00 +27°C° 0 mm 6 mps 704 mmHg 43%
11:00 +28°C° 0 mm 7 mps 705 mmHg 42%
12:00 +28°C° 0 mm 6 mps 704 mmHg 43%
13:00 +27°C° 0 mm 6 mps 704 mmHg 44%
14:00 +27°C° 0 mm 6 mps 704 mmHg 45%
15:00 +27°C° 0 mm 6 mps 704 mmHg 47%
16:00 +27°C° 0 mm 6 mps 704 mmHg 49%
17:00 +26°C° 0 mm 6 mps 704 mmHg 51%
18:00 +24°C° 0 mm 6 mps 704 mmHg 52%
19:00 +23°C° 0 mm 6 mps 704 mmHg 54%
20:00 +22°C° 0 mm 6 mps 704 mmHg 55%
21:00 +22°C° 0 mm 6 mps 704 mmHg 52%
22:00 +22°C° 0 mm 6 mps 704 mmHg 48%
23:00 +22°C° 0 mm 6 mps 704 mmHg 45%

12 July, Sunday

Time Temperature Precipitation Wind Pressure Humidity
00:00 +21°C° 0 mm 6 mps 704 mmHg 46%
01:00 +21°C° 0 mm 5 mps 704 mmHg 47%
02:00 +20°C° 0 mm 5 mps 703 mmHg 49%
03:00 +20°C° 0 mm 5 mps 703 mmHg 50%
04:00 +20°C° 0 mm 5 mps 704 mmHg 51%
05:00 +19°C° 0 mm 5 mps 704 mmHg 53%
06:00 +21°C° 0 mm 5 mps 704 mmHg 49%
07:00 +23°C° 0 mm 6 mps 705 mmHg 45%
08:00 +26°C° 0 mm 6 mps 705 mmHg 41%
09:00 +27°C° 0 mm 6 mps 705 mmHg 41%
10:00 +27°C° 0 mm 6 mps 706 mmHg 41%
11:00 +28°C° 0 mm 6 mps 706 mmHg 42%
12:00 +28°C° 0 mm 6 mps 706 mmHg 44%
13:00 +28°C° 0 mm 6 mps 706 mmHg 46%
14:00 +28°C° 0 mm 6 mps 706 mmHg 47%
15:00 +27°C° 0 mm 6 mps 705 mmHg 49%
16:00 +27°C° 0 mm 6 mps 705 mmHg 51%
17:00 +26°C° 0 mm 6 mps 705 mmHg 53%
18:00 +24°C° 0 mm 6 mps 705 mmHg 57%
19:00 +23°C° 0 mm 5 mps 705 mmHg 60%
20:00 +22°C° 0 mm 5 mps 706 mmHg 64%
21:00 +22°C° 0 mm 5 mps 706 mmHg 61%
22:00 +22°C° 0 mm 5 mps 706 mmHg 58%
23:00 +21°C° 0 mm 5 mps 706 mmHg 56%

13 July, Monday

Time Temperature Precipitation Wind Pressure Humidity
00:00 +21°C° 0 mm 5 mps 705 mmHg 55%
01:00 +21°C° 0 mm 5 mps 705 mmHg 54%
02:00 +20°C° 0 mm 5 mps 705 mmHg 53%
03:00 +20°C° 0 mm 5 mps 705 mmHg 52%
04:00 +20°C° 0 mm 5 mps 705 mmHg 52%
05:00 +20°C° 0 mm 5 mps 705 mmHg 52%
06:00 +21°C° 0 mm 5 mps 705 mmHg 49%
07:00 +23°C° 0 mm 5 mps 706 mmHg 46%
08:00 +26°C° 0 mm 4 mps 706 mmHg 43%
09:00 +26°C° 0 mm 5 mps 706 mmHg 42%
10:00 +27°C° 0 mm 6 mps 707 mmHg 40%
11:00 +28°C° 0 mm 7 mps 707 mmHg 39%
12:00 +28°C° 0 mm 7 mps 706 mmHg 40%
13:00 +29°C° 0 mm 7 mps 706 mmHg 40%
14:00 +29°C° 0 mm 7 mps 706 mmHg 41%
15:00 +28°C° 0 mm 6 mps 705 mmHg 44%
16:00 +27°C° 0 mm 6 mps 705 mmHg 48%
17:00 +27°C° 0 mm 6 mps 705 mmHg 51%
18:00 +24°C° 0 mm 6 mps 705 mmHg 52%
19:00 +23°C° 0 mm 6 mps 705 mmHg 53%
20:00 +22°C° 0 mm 6 mps 705 mmHg 53%
21:00 +22°C° 0 mm 6 mps 705 mmHg 53%
22:00 +22°C° 0 mm 6 mps 705 mmHg 52%
23:00 +22°C° 0 mm 6 mps 705 mmHg 51%
Show more